• In Portugal
  • List of Countries
  • For 7 days
  • Water Temperature
  • Satellite Maps
  • Weather Map
  • Weather Widgets
  • user-avatar
    Login

    Hourly Weather Batina

    Today, 27 April, Friday

    Time Temperature Precipitation Wind Pressure Humidity
    00:00 +14°C° 0.2 mm 5 mps 665 mmHg 77%
    01:00 +13°C° 0 mm 5 mps 664 mmHg 78%
    02:00 +13°C° 0 mm 5 mps 664 mmHg 80%
    03:00 +12°C° 0 mm 5 mps 664 mmHg 81%
    04:00 +12°C° 0 mm 5 mps 665 mmHg 80%
    05:00 +12°C° 0 mm 5 mps 665 mmHg 79%
    06:00 +12°C° 0 mm 5 mps 665 mmHg 77%
    07:00 +13°C° 0 mm 5 mps 666 mmHg 73%
    08:00 +14°C° 0 mm 5 mps 666 mmHg 68%
    09:00 +14°C° 0 mm 5 mps 666 mmHg 64%
    10:00 +15°C° 0 mm 5 mps 667 mmHg 59%
    11:00 +16°C° 0 mm 5 mps 667 mmHg 55%
    12:00 +17°C° 0 mm 5 mps 667 mmHg 50%
    13:00 +17°C° 0 mm 6 mps 667 mmHg 49%
    14:00 +19°C° 0 mm 6 mps 667 mmHg 49%
    15:00 +18°C° 0 mm 7 mps 667 mmHg 48%
    16:00 +17°C° 0.1 mm 6 mps 667 mmHg 53%
    17:00 +16°C° 0.1 mm 6 mps 667 mmHg 59%
    18:00 +14°C° 0.1 mm 6 mps 667 mmHg 64%
    19:00 +13°C° 0 mm 5 mps 668 mmHg 68%
    20:00 +13°C° 0 mm 4 mps 668 mmHg 72%
    21:00 +12°C° 0 mm 3 mps 668 mmHg 77%
    22:00 +11°C° 0 mm 3 mps 668 mmHg 77%
    23:00 +11°C° 0 mm 3 mps 668 mmHg 77%

    Tomorrow, 28 April, Saturday

    Time Temperature Precipitation Wind Pressure Humidity
    00:00 +12°C° 0 mm 2 mps 668 mmHg 77%
    01:00 +10°C° 0 mm 2 mps 668 mmHg 77%
    02:00 +10°C° 0 mm 2 mps 667 mmHg 78%
    03:00 +10°C° 0 mm 2 mps 667 mmHg 79%
    04:00 +10°C° 0 mm 2 mps 668 mmHg 76%
    05:00 +12°C° 0 mm 2 mps 668 mmHg 73%
    06:00 +12°C° 0 mm 2 mps 668 mmHg 70%
    07:00 +14°C° 0 mm 1 mps 669 mmHg 61%
    08:00 +15°C° 0 mm 1 mps 669 mmHg 53%
    09:00 +18°C° 0 mm 1 mps 670 mmHg 45%
    10:00 +19°C° 0 mm 1 mps 670 mmHg 41%
    11:00 +20°C° 0 mm 1 mps 670 mmHg 37%
    12:00 +21°C° 0 mm 1 mps 670 mmHg 34%
    13:00 +21°C° 0 mm 2 mps 670 mmHg 33%
    14:00 +21°C° 0 mm 2 mps 670 mmHg 32%
    15:00 +23°C° 0 mm 2 mps 669 mmHg 31%
    16:00 +21°C° 0 mm 2 mps 669 mmHg 33%
    17:00 +21°C° 0 mm 2 mps 669 mmHg 36%
    18:00 +20°C° 0 mm 2 mps 669 mmHg 38%
    19:00 +19°C° 0 mm 2 mps 669 mmHg 42%
    20:00 +19°C° 0 mm 1 mps 669 mmHg 47%
    21:00 +18°C° 0 mm 1 mps 669 mmHg 51%
    22:00 +16°C° 0 mm 1 mps 669 mmHg 52%
    23:00 +16°C° 0 mm 1 mps 669 mmHg 54%

    Day after tomorrow, 29 April, Sunday

    Time Temperature Precipitation Wind Pressure Humidity
    00:00 +15°C° 0 mm 1 mps 669 mmHg 55%
    01:00 +15°C° 0 mm 1 mps 668 mmHg 54%
    02:00 +15°C° 0 mm 1 mps 668 mmHg 54%
    03:00 +15°C° 0 mm 2 mps 668 mmHg 53%
    04:00 +15°C° 0 mm 2 mps 668 mmHg 52%
    05:00 +16°C° 0 mm 2 mps 668 mmHg 50%
    06:00 +16°C° 0 mm 2 mps 669 mmHg 48%
    07:00 +18°C° 0 mm 3 mps 669 mmHg 43%
    08:00 +19°C° 0 mm 4 mps 670 mmHg 38%
    09:00 +21°C° 0 mm 4 mps 671 mmHg 33%
    10:00 +21°C° 0 mm 4 mps 671 mmHg 35%
    11:00 +21°C° 0 mm 4 mps 671 mmHg 37%
    12:00 +20°C° 0 mm 4 mps 671 mmHg 38%
    13:00 +21°C° 0 mm 4 mps 671 mmHg 36%
    14:00 +22°C° 0 mm 3 mps 671 mmHg 34%
    15:00 +24°C° 0 mm 3 mps 671 mmHg 32%
    16:00 +22°C° 0 mm 3 mps 671 mmHg 38%
    17:00 +21°C° 0 mm 3 mps 671 mmHg 44%
    18:00 +20°C° 0 mm 3 mps 671 mmHg 50%
    19:00 +18°C° 0 mm 3 mps 671 mmHg 57%
    20:00 +17°C° 0 mm 3 mps 671 mmHg 63%
    21:00 +16°C° 0 mm 3 mps 672 mmHg 70%
    22:00 +14°C° 0 mm 3 mps 671 mmHg 71%
    23:00 +14°C° 0 mm 3 mps 671 mmHg 73%

    30 April, Monday

    Time Temperature Precipitation Wind Pressure Humidity
    00:00 +14°C° 0 mm 2 mps 671 mmHg 74%
    01:00 +14°C° 0 mm 2 mps 671 mmHg 73%
    02:00 +14°C° 0 mm 2 mps 670 mmHg 72%
    03:00 +14°C° 0 mm 2 mps 670 mmHg 72%
    04:00 +14°C° 0.1 mm 2 mps 670 mmHg 71%
    05:00 +14°C° 0.1 mm 2 mps 670 mmHg 71%
    06:00 +15°C° 0.1 mm 2 mps 670 mmHg 70%
    07:00 +16°C° 0.1 mm 3 mps 671 mmHg 61%
    08:00 +17°C° 0.1 mm 5 mps 671 mmHg 52%
    09:00 +20°C° 0.1 mm 6 mps 671 mmHg 43%
    10:00 +22°C° 0 mm 8 mps 671 mmHg 38%
    11:00 +23°C° 0 mm 9 mps 671 mmHg 34%
    12:00 +24°C° 0 mm 11 mps 671 mmHg 29%
    13:00 +24°C° 0 mm 11 mps 670 mmHg 30%
    14:00 +24°C° 0 mm 11 mps 670 mmHg 30%
    15:00 +24°C° 0 mm 11 mps 669 mmHg 30%
    16:00 +23°C° 0 mm 11 mps 668 mmHg 33%
    17:00 +22°C° 0 mm 11 mps 668 mmHg 35%
    18:00 +21°C° 0 mm 10 mps 667 mmHg 37%
    19:00 +21°C° 0 mm 10 mps 667 mmHg 40%
    20:00 +19°C° 0 mm 10 mps 667 mmHg 42%
    21:00 +18°C° 0 mm 9 mps 667 mmHg 44%
    22:00 +18°C° 0.1 mm 9 mps 666 mmHg 44%
    23:00 +18°C° 0.1 mm 9 mps 665 mmHg 43%

    1 May, Tuesday

    Time Temperature Precipitation Wind Pressure Humidity
    00:00 +18°C° 0.1 mm 9 mps 665 mmHg 43%
    01:00 +17°C° 0.1 mm 8 mps 664 mmHg 43%
    02:00 +16°C° 0.1 mm 7 mps 664 mmHg 43%
    03:00 +16°C° 0.1 mm 6 mps 664 mmHg 43%
    04:00 +16°C° 0 mm 5 mps 664 mmHg 46%
    05:00 +17°C° 0 mm 4 mps 664 mmHg 49%
    06:00 +17°C° 0 mm 3 mps 664 mmHg 52%
    07:00 +18°C° 0 mm 4 mps 664 mmHg 48%
    08:00 +19°C° 0 mm 5 mps 664 mmHg 45%
    09:00 +21°C° 0 mm 6 mps 665 mmHg 41%
    10:00 +21°C° 0 mm 5 mps 664 mmHg 40%
    11:00 +22°C° 0 mm 5 mps 664 mmHg 38%
    12:00 +23°C° 0 mm 4 mps 664 mmHg 37%
    13:00 +23°C° 0 mm 5 mps 664 mmHg 37%
    14:00 +23°C° 0 mm 5 mps 663 mmHg 37%
    15:00 +23°C° 0 mm 6 mps 663 mmHg 38%
    16:00 +21°C° 0.1 mm 6 mps 663 mmHg 48%
    17:00 +19°C° 0.1 mm 6 mps 662 mmHg 59%
    18:00 +16°C° 0.1 mm 6 mps 662 mmHg 69%
    19:00 +15°C° 0.1 mm 6 mps 663 mmHg 71%
    20:00 +14°C° 0.1 mm 5 mps 663 mmHg 74%
    21:00 +13°C° 0.1 mm 5 mps 663 mmHg 76%
    22:00 +12°C° 0.6 mm 5 mps 663 mmHg 76%
    23:00 +12°C° 0.6 mm 5 mps 663 mmHg 76%

    2 May, Wednesday

    Time Temperature Precipitation Wind Pressure Humidity
    00:00 +11°C° 0.6 mm 4 mps 663 mmHg 75%
    01:00 +11°C° 0.1 mm 4 mps 663 mmHg 74%
    02:00 +10°C° 0.1 mm 4 mps 662 mmHg 73%
    03:00 +10°C° 0.1 mm 4 mps 662 mmHg 72%
    04:00 +9°C° 0 mm 5 mps 662 mmHg 68%
    05:00 +8°C° 0 mm 5 mps 662 mmHg 64%
    06:00 +8°C° 0 mm 5 mps 663 mmHg 60%
    07:00 +9°C° 0 mm 6 mps 663 mmHg 53%
    08:00 +10°C° 0 mm 7 mps 663 mmHg 46%
    09:00 +11°C° 0 mm 8 mps 664 mmHg 39%
    10:00 +12°C° 0 mm 8 mps 664 mmHg 36%
    11:00 +12°C° 0 mm 9 mps 664 mmHg 34%
    12:00 +13°C° 0 mm 10 mps 664 mmHg 32%
    13:00 +13°C° 0 mm 11 mps 664 mmHg 34%
    14:00 +13°C° 0 mm 11 mps 664 mmHg 35%
    15:00 +13°C° 0 mm 12 mps 664 mmHg 37%
    16:00 +12°C° 0 mm 11 mps 665 mmHg 41%
    17:00 +11°C° 0 mm 10 mps 665 mmHg 46%
    18:00 +10°C° 0 mm 9 mps 665 mmHg 51%
    19:00 +10°C° 0 mm 7 mps 666 mmHg 54%
    20:00 +9°C° 0 mm 6 mps 666 mmHg 58%
    21:00 +8°C° 0 mm 5 mps 666 mmHg 62%
    22:00 +8°C° 0 mm 5 mps 666 mmHg 63%
    23:00 +8°C° 0 mm 4 mps 666 mmHg 65%
    Show more